TimeMDT,TemperatureF,Dew PointF,Humidity,Sea Level PressureIn,VisibilityMPH,Wind Direction,Wind SpeedMPH,Gust SpeedMPH,PrecipitationIn,Events,Conditions,WindDirDegrees,DateUTC
12:53 AM,51.1,35.1,54,29.84,10.0,SE,3.5,-,N/A,,Clear,130,2013-05-22 06:53:00
1:53 AM,46.9,32.0,56,29.83,10.0,ENE,4.6,-,N/A,,Clear,70,2013-05-22 07:53:00
2:53 AM,45.0,33.1,63,29.84,10.0,Calm,Calm,-,N/A,,Clear,0,2013-05-22 08:53:00
3:53 AM,41.0,28.9,62,29.85,10.0,Calm,Calm,-,N/A,,Clear,0,2013-05-22 09:53:00
4:53 AM,41.0,28.9,62,29.86,10.0,Calm,Calm,-,N/A,,Clear,0,2013-05-22 10:53:00
5:53 AM,39.0,30.0,70,29.88,10.0,Calm,Calm,-,N/A,,Clear,0,2013-05-22 11:53:00
6:53 AM,46.9,33.1,59,29.87,10.0,Calm,Calm,-,N/A,,Clear,0,2013-05-22 12:53:00
7:53 AM,54.0,37.0,53,29.88,10.0,Calm,Calm,-,N/A,,Clear,0,2013-05-22 13:53:00
8:53 AM,61.0,37.0,41,29.87,10.0,ESE,5.8,-,N/A,,Clear,110,2013-05-22 14:53:00
9:53 AM,70.0,37.0,30,29.83,10.0,SE,11.5,23.0,N/A,,Clear,130,2013-05-22 15:53:00
10:53 AM,73.9,37.0,26,29.81,10.0,South,10.4,21.9,N/A,,Clear,180,2013-05-22 16:53:00
11:53 AM,77.0,37.0,24,29.80,10.0,SSW,12.7,23.0,N/A,,Clear,210,2013-05-22 17:53:00
12:53 PM,79.0,37.0,22,29.78,10.0,SSE,9.2,17.3,N/A,,Clear,160,2013-05-22 18:53:00
1:53 PM,82.0,36.0,19,29.74,10.0,South,12.7,20.7,N/A,,Clear,170,2013-05-22 19:53:00
2:53 PM,84.0,35.1,17,29.73,10.0,SE,9.2,-,N/A,,Clear,140,2013-05-22 20:53:00
3:53 PM,84.0,32.0,15,29.72,10.0,East,10.4,-,N/A,,Clear,100,2013-05-22 21:53:00
4:53 PM,86.0,30.0,13,29.70,10.0,SE,13.8,-,N/A,,Clear,140,2013-05-22 22:53:00
5:53 PM,84.9,28.9,13,29.70,10.0,ESE,6.9,-,N/A,,Clear,110,2013-05-22 23:53:00
6:53 PM,82.0,37.9,21,29.69,10.0,East,25.3,29.9,N/A,,Clear,100,2013-05-23 00:53:00
7:53 PM,77.0,39.0,25,29.72,10.0,East,19.6,-,N/A,,Clear,100,2013-05-23 01:53:00
8:53 PM,73.0,39.0,29,29.75,10.0,East,19.6,25.3,N/A,,Clear,90,2013-05-23 02:53:00
9:53 PM,70.0,41.0,35,29.77,10.0,East,17.3,26.5,N/A,,Clear,90,2013-05-23 03:53:00
10:53 PM,66.9,41.0,39,29.81,10.0,East,20.7,26.5,N/A,,Clear,100,2013-05-23 04:53:00
11:53 PM,64.9,41.0,42,29.82,10.0,East,21.9,31.1,N/A,,Clear,90,2013-05-23 05:53:00